Year,Month,Day,Hour,Minute,Value (Times are PST for temperature in C)
2016,07,18,00,00,16.10
2016,07,18,00,01,16.10
2016,07,18,00,02,16.10
2016,07,18,00,03,16.10
2016,07,18,00,04,16.10
2016,07,18,00,05,16.10
2016,07,18,00,06,16.10
2016,07,18,00,07,16.10
2016,07,18,00,08,16.10
2016,07,18,00,09,16.10
2016,07,18,00,10,16.10
2016,07,18,00,11,16.10
2016,07,18,00,12,16.10
2016,07,18,00,13,16.10
2016,07,18,00,14,16.10
2016,07,18,00,15,16.10
2016,07,18,00,16,16.10
2016,07,18,00,17,16.10
2016,07,18,00,18,16.10
2016,07,18,00,19,16.10
2016,07,18,00,20,16.10
2016,07,18,00,21,16.10
2016,07,18,00,22,16.10
2016,07,18,00,23,15.90
2016,07,18,00,24,15.90
2016,07,18,00,25,15.90
2016,07,18,00,26,15.90
2016,07,18,00,27,15.90
2016,07,18,00,28,15.90
2016,07,18,00,29,15.90
2016,07,18,00,30,15.90
2016,07,18,00,31,15.90
2016,07,18,00,32,15.90
2016,07,18,00,33,15.90
2016,07,18,00,34,15.90
2016,07,18,00,35,15.90
2016,07,18,00,36,15.90
2016,07,18,00,37,15.90
2016,07,18,00,38,15.90
2016,07,18,00,39,15.90
2016,07,18,00,40,15.90
2016,07,18,00,41,15.90
2016,07,18,00,42,15.80
2016,07,18,00,43,15.80
2016,07,18,00,44,15.80
2016,07,18,00,45,15.80
2016,07,18,00,46,15.80
2016,07,18,00,47,15.80
2016,07,18,00,48,15.80
2016,07,18,00,49,15.80
2016,07,18,00,50,15.80
2016,07,18,00,51,15.80
2016,07,18,00,52,15.80
2016,07,18,00,53,15.80
2016,07,18,00,54,15.80
2016,07,18,00,55,15.80
2016,07,18,00,56,15.80
2016,07,18,00,57,15.80
2016,07,18,00,58,15.80
2016,07,18,00,59,15.80
2016,07,18,01,00,15.70
2016,07,18,01,01,15.70
2016,07,18,01,02,15.70
2016,07,18,01,03,15.60
2016,07,18,01,04,15.60
2016,07,18,01,05,15.60
2016,07,18,01,06,15.60
2016,07,18,01,07,15.50
2016,07,18,01,08,15.50
2016,07,18,01,09,15.50
2016,07,18,01,10,15.50
2016,07,18,01,11,15.50
2016,07,18,01,12,15.40
2016,07,18,01,13,15.40
2016,07,18,01,14,15.30
2016,07,18,01,15,15.30
2016,07,18,01,16,15.30
2016,07,18,01,17,15.30
2016,07,18,01,18,15.30
2016,07,18,01,19,15.30
2016,07,18,01,20,15.30
2016,07,18,01,21,15.30
2016,07,18,01,22,15.30
2016,07,18,01,23,15.30
2016,07,18,01,24,15.30
2016,07,18,01,25,15.30
2016,07,18,01,26,15.30
2016,07,18,01,27,15.30
2016,07,18,01,28,15.30
2016,07,18,01,29,15.30
2016,07,18,01,30,15.30
2016,07,18,01,31,15.30
2016,07,18,01,32,15.30
2016,07,18,01,33,15.30
2016,07,18,01,34,15.30
2016,07,18,01,35,15.20
2016,07,18,01,36,15.20
2016,07,18,01,37,15.20
2016,07,18,01,38,15.20
2016,07,18,01,39,15.10
2016,07,18,01,40,15.10
2016,07,18,01,41,15.10
2016,07,18,01,42,15.10
2016,07,18,01,43,15.00
2016,07,18,01,44,15.00
2016,07,18,01,45,15.00
2016,07,18,01,46,15.00
2016,07,18,01,47,14.90
2016,07,18,01,48,14.90
2016,07,18,01,49,14.90
2016,07,18,01,50,14.90
2016,07,18,01,51,14.90
2016,07,18,01,52,14.80
2016,07,18,01,53,14.80
2016,07,18,01,54,14.80
2016,07,18,01,55,14.80
2016,07,18,01,56,14.80
2016,07,18,01,57,14.80
2016,07,18,01,58,14.80
2016,07,18,01,59,14.80
2016,07,18,02,00,14.80
2016,07,18,02,01,14.70
2016,07,18,02,02,14.70
2016,07,18,02,03,14.70
2016,07,18,02,04,14.70
2016,07,18,02,05,14.70
2016,07,18,02,06,14.70
2016,07,18,02,07,14.70
2016,07,18,02,08,14.70
2016,07,18,02,09,14.60
2016,07,18,02,10,14.60
2016,07,18,02,11,14.60
2016,07,18,02,12,14.60
2016,07,18,02,13,14.60
2016,07,18,02,14,14.60
2016,07,18,02,15,14.70
2016,07,18,02,16,14.70
2016,07,18,02,17,14.70
2016,07,18,02,18,14.70
2016,07,18,02,19,14.70
2016,07,18,02,20,14.70
2016,07,18,02,21,14.70
2016,07,18,02,22,14.70
2016,07,18,02,23,14.70
2016,07,18,02,24,14.70
2016,07,18,02,25,14.80
2016,07,18,02,26,14.80
2016,07,18,02,27,14.80
2016,07,18,02,28,14.80
2016,07,18,02,29,14.80
2016,07,18,02,30,14.80
2016,07,18,02,31,14.80
2016,07,18,02,32,14.80
2016,07,18,02,33,14.80
2016,07,18,02,34,14.80
2016,07,18,02,35,14.80
2016,07,18,02,36,14.80
2016,07,18,02,37,14.80
2016,07,18,02,38,14.80
2016,07,18,02,39,14.80
2016,07,18,02,40,14.80
2016,07,18,02,41,14.80
2016,07,18,02,42,14.80
2016,07,18,02,43,14.80
2016,07,18,02,44,14.80
2016,07,18,02,45,14.80
2016,07,18,02,46,14.80
2016,07,18,02,47,14.80
2016,07,18,02,48,14.80
2016,07,18,02,49,14.80
2016,07,18,02,50,14.80
2016,07,18,02,51,14.80
2016,07,18,02,52,14.80
2016,07,18,02,53,14.80
2016,07,18,02,54,14.80
2016,07,18,02,55,14.80
2016,07,18,02,56,14.80
2016,07,18,02,57,14.80
2016,07,18,02,58,14.80
2016,07,18,02,59,14.80
2016,07,18,03,00,14.80
2016,07,18,03,01,14.80
2016,07,18,03,02,14.80
2016,07,18,03,03,14.80
2016,07,18,03,04,14.80
2016,07,18,03,05,14.80
2016,07,18,03,06,14.80
2016,07,18,03,07,14.90
2016,07,18,03,08,14.90
2016,07,18,03,09,14.90
2016,07,18,03,10,14.90
2016,07,18,03,11,14.90
2016,07,18,03,12,14.90
2016,07,18,03,13,14.90
2016,07,18,03,14,14.90
2016,07,18,03,15,14.90
2016,07,18,03,16,14.90
2016,07,18,03,17,14.90
2016,07,18,03,18,14.90
2016,07,18,03,19,14.90
2016,07,18,03,20,14.90
2016,07,18,03,21,14.90
2016,07,18,03,22,14.90
2016,07,18,03,23,14.80
2016,07,18,03,24,14.80
2016,07,18,03,25,14.80
2016,07,18,03,26,14.80
2016,07,18,03,27,14.80
2016,07,18,03,28,14.80
2016,07,18,03,29,14.80
2016,07,18,03,30,14.80
2016,07,18,03,31,14.80
2016,07,18,03,32,14.80
2016,07,18,03,33,14.80
2016,07,18,03,34,14.80
2016,07,18,03,35,14.80
2016,07,18,03,36,14.80
2016,07,18,03,37,14.80
2016,07,18,03,38,14.80
2016,07,18,03,39,14.80
2016,07,18,03,40,14.80
2016,07,18,03,41,14.80
2016,07,18,03,42,14.80
2016,07,18,03,43,14.70
2016,07,18,03,44,14.70
2016,07,18,03,45,14.70
2016,07,18,03,46,14.70
2016,07,18,03,47,14.70
2016,07,18,03,48,14.70
2016,07,18,03,49,14.70
2016,07,18,03,50,14.70
2016,07,18,03,51,14.70
2016,07,18,03,52,14.70
2016,07,18,03,53,14.60
2016,07,18,03,54,14.60
2016,07,18,03,55,14.60
2016,07,18,03,56,14.60
2016,07,18,03,57,14.60
2016,07,18,03,58,14.60
2016,07,18,03,59,14.50
2016,07,18,04,00,14.50
2016,07,18,04,01,14.50
2016,07,18,04,02,14.50
2016,07,18,04,03,14.50
2016,07,18,04,04,14.50
2016,07,18,04,05,14.50
2016,07,18,04,06,14.40
2016,07,18,04,07,14.40
2016,07,18,04,08,14.40
2016,07,18,04,09,14.40
2016,07,18,04,10,14.40
2016,07,18,04,11,14.40
2016,07,18,04,12,14.40
2016,07,18,04,13,14.40
2016,07,18,04,14,14.40
2016,07,18,04,15,14.40
2016,07,18,04,16,14.30
2016,07,18,04,17,14.30
2016,07,18,04,18,14.30
2016,07,18,04,19,14.30
2016,07,18,04,20,14.30
2016,07,18,04,21,14.20
2016,07,18,04,22,14.20
2016,07,18,04,23,14.20
2016,07,18,04,24,14.20
2016,07,18,04,25,14.20
2016,07,18,04,26,14.20
2016,07,18,04,27,14.20
2016,07,18,04,28,14.20
2016,07,18,04,29,14.20
2016,07,18,04,30,14.20
2016,07,18,04,31,14.10
2016,07,18,04,32,14.10
2016,07,18,04,33,14.10
2016,07,18,04,34,14.00
2016,07,18,04,35,14.00
2016,07,18,04,36,14.00
2016,07,18,04,37,14.00
2016,07,18,04,38,14.00
2016,07,18,04,39,13.90
2016,07,18,04,40,13.90
2016,07,18,04,41,13.90
2016,07,18,04,42,13.90
2016,07,18,04,43,13.80
2016,07,18,04,44,13.80
2016,07,18,04,45,13.80
2016,07,18,04,46,13.80
2016,07,18,04,47,13.80
2016,07,18,04,48,13.80
2016,07,18,04,49,13.80
2016,07,18,04,50,13.80
2016,07,18,04,51,13.80
2016,07,18,04,52,13.80
2016,07,18,04,53,13.80
2016,07,18,04,54,13.70
2016,07,18,04,55,13.70
2016,07,18,04,56,13.70
2016,07,18,04,57,13.70
2016,07,18,04,58,13.70
2016,07,18,04,59,13.70
2016,07,18,05,00,13.70
2016,07,18,05,01,13.70
2016,07,18,05,02,13.70
2016,07,18,05,03,13.70
2016,07,18,05,04,13.70
2016,07,18,05,05,13.70
2016,07,18,05,06,13.70
2016,07,18,05,07,13.70
2016,07,18,05,08,13.60
2016,07,18,05,09,13.60
2016,07,18,05,10,13.60
2016,07,18,05,11,13.60
2016,07,18,05,12,13.60
2016,07,18,05,13,13.50
2016,07,18,05,14,13.50
2016,07,18,05,15,13.50
2016,07,18,05,16,13.50
2016,07,18,05,17,13.50
2016,07,18,05,18,13.50
2016,07,18,05,19,13.50
2016,07,18,05,20,13.50
2016,07,18,05,21,13.50
2016,07,18,05,22,13.50
2016,07,18,05,23,13.50
2016,07,18,05,24,13.50
2016,07,18,05,25,13.40
2016,07,18,05,26,13.40
2016,07,18,05,27,13.40
2016,07,18,05,28,13.30
2016,07,18,05,29,13.30
2016,07,18,05,30,13.30
2016,07,18,05,31,13.30
2016,07,18,05,32,13.30
2016,07,18,05,33,13.30
2016,07,18,05,34,13.30
2016,07,18,05,35,13.30
2016,07,18,05,36,13.30
2016,07,18,05,37,13.30
2016,07,18,05,38,13.30
2016,07,18,05,39,13.30
2016,07,18,05,40,13.30
2016,07,18,05,41,13.20
2016,07,18,05,42,13.20
2016,07,18,05,43,13.20
2016,07,18,05,44,13.20
2016,07,18,05,45,13.20
2016,07,18,05,46,13.20
2016,07,18,05,47,13.20
2016,07,18,05,48,13.20
2016,07,18,05,49,13.20
2016,07,18,05,50,13.10
2016,07,18,05,51,13.20
2016,07,18,05,52,13.20
2016,07,18,05,53,13.20
2016,07,18,05,54,13.20
2016,07,18,05,55,13.20
2016,07,18,05,56,13.20
2016,07,18,05,57,13.20
2016,07,18,05,58,13.20
2016,07,18,05,59,13.20
2016,07,18,06,00,13.20
2016,07,18,06,01,13.20
2016,07,18,06,02,13.20
2016,07,18,06,03,13.20
2016,07,18,06,04,13.20
2016,07,18,06,05,13.20
2016,07,18,06,06,13.20
2016,07,18,06,07,13.30
2016,07,18,06,08,13.30
2016,07,18,06,09,13.30
2016,07,18,06,10,13.30
2016,07,18,06,11,13.30
2016,07,18,06,12,13.30
2016,07,18,06,13,13.30
2016,07,18,06,14,13.30
2016,07,18,06,15,13.30
2016,07,18,06,16,13.30
2016,07,18,06,17,13.30
2016,07,18,06,18,13.30
2016,07,18,06,19,13.30
2016,07,18,06,20,13.30
2016,07,18,06,21,13.30
2016,07,18,06,22,13.30
2016,07,18,06,23,13.30
2016,07,18,06,24,13.30
2016,07,18,06,25,13.40
2016,07,18,06,26,13.40
2016,07,18,06,27,13.40
2016,07,18,06,28,13.40
2016,07,18,06,29,13.40
2016,07,18,06,30,13.50
2016,07,18,06,31,13.50
2016,07,18,06,32,13.50
2016,07,18,06,33,13.50
2016,07,18,06,34,13.50
2016,07,18,06,35,13.50
2016,07,18,06,36,13.60
2016,07,18,06,37,13.60
2016,07,18,06,38,13.60
2016,07,18,06,39,13.60
2016,07,18,06,40,13.60
2016,07,18,06,41,13.70
2016,07,18,06,42,13.70
2016,07,18,06,43,13.70
2016,07,18,06,44,13.70
2016,07,18,06,45,13.70
2016,07,18,06,46,13.70
2016,07,18,06,47,13.80
2016,07,18,06,48,13.80
2016,07,18,06,49,13.80
2016,07,18,06,50,13.90
2016,07,18,06,51,13.90
2016,07,18,06,52,13.90
2016,07,18,06,53,14.00
2016,07,18,06,54,14.00
2016,07,18,06,55,14.00
2016,07,18,06,56,14.00
2016,07,18,06,57,14.00
2016,07,18,06,58,14.10
2016,07,18,06,59,14.10
2016,07,18,07,00,14.10
2016,07,18,07,01,14.10
2016,07,18,07,02,14.20
2016,07,18,07,03,14.20
2016,07,18,07,04,14.20
2016,07,18,07,05,14.20
2016,07,18,07,06,14.20
2016,07,18,07,07,14.20
2016,07,18,07,08,14.20
2016,07,18,07,09,14.30
2016,07,18,07,10,14.30
2016,07,18,07,11,14.30
2016,07,18,07,12,14.40
2016,07,18,07,13,14.40
2016,07,18,07,14,14.40
2016,07,18,07,15,14.50
2016,07,18,07,16,14.50
2016,07,18,07,17,14.50
2016,07,18,07,18,14.50
2016,07,18,07,19,14.60
2016,07,18,07,20,14.60
2016,07,18,07,21,14.60
2016,07,18,07,22,14.60
2016,07,18,07,23,14.70
2016,07,18,07,24,14.70
2016,07,18,07,25,14.70
2016,07,18,07,26,14.80
2016,07,18,07,27,14.80
2016,07,18,07,28,14.80
2016,07,18,07,29,14.80
2016,07,18,07,30,14.80
2016,07,18,07,31,14.90
2016,07,18,07,32,14.90
2016,07,18,07,33,14.90
2016,07,18,07,34,15.00
2016,07,18,07,35,15.00
2016,07,18,07,36,15.00
2016,07,18,07,37,15.00
2016,07,18,07,38,15.10
2016,07,18,07,39,15.10
2016,07,18,07,40,15.20
2016,07,18,07,41,15.20
2016,07,18,07,42,15.20
2016,07,18,07,43,15.20
2016,07,18,07,44,15.30
2016,07,18,07,45,15.30
2016,07,18,07,46,15.30
2016,07,18,07,47,15.30
2016,07,18,07,48,15.30
2016,07,18,07,49,15.30
2016,07,18,07,50,15.40
2016,07,18,07,51,15.40
2016,07,18,07,52,15.40
2016,07,18,07,53,15.50
2016,07,18,07,54,15.50
2016,07,18,07,55,15.50
2016,07,18,07,56,15.50
2016,07,18,07,57,15.60
2016,07,18,07,58,15.60
2016,07,18,07,59,15.60
2016,07,18,08,00,15.70
2016,07,18,08,01,15.70
2016,07,18,08,02,15.70
2016,07,18,08,03,15.80
2016,07,18,08,04,15.80
2016,07,18,08,05,15.80
2016,07,18,08,06,15.80
2016,07,18,08,07,15.80
2016,07,18,08,08,15.90
2016,07,18,08,09,15.90
2016,07,18,08,10,16.00
2016,07,18,08,11,16.10
2016,07,18,08,12,16.10
2016,07,18,08,13,16.10
2016,07,18,08,14,16.10
2016,07,18,08,15,16.20
2016,07,18,08,16,16.20
2016,07,18,08,17,16.20
2016,07,18,08,18,16.20
2016,07,18,08,19,16.30
2016,07,18,08,20,16.30
2016,07,18,08,21,16.30
2016,07,18,08,22,16.30
2016,07,18,08,23,16.40
2016,07,18,08,24,16.40
2016,07,18,08,25,16.40
2016,07,18,08,26,16.40
2016,07,18,08,27,16.40
2016,07,18,08,28,16.50
2016,07,18,08,29,16.60
2016,07,18,08,30,16.60
2016,07,18,08,31,16.60
2016,07,18,08,32,16.70
2016,07,18,08,33,16.70
2016,07,18,08,34,16.70
2016,07,18,08,35,16.70
2016,07,18,08,36,16.70
2016,07,18,08,37,16.80
2016,07,18,08,38,16.80
2016,07,18,08,39,16.90
2016,07,18,08,40,16.90
2016,07,18,08,41,16.90
2016,07,18,08,42,17.00
2016,07,18,08,43,17.00
2016,07,18,08,44,17.10
2016,07,18,08,45,17.10
2016,07,18,08,46,17.20
2016,07,18,08,47,17.20
2016,07,18,08,48,17.30
2016,07,18,08,49,17.30
2016,07,18,08,50,17.30
2016,07,18,08,51,17.40
2016,07,18,08,52,17.40
2016,07,18,08,53,17.50
2016,07,18,08,54,17.50
2016,07,18,08,55,17.60
2016,07,18,08,56,17.60
2016,07,18,08,57,17.70
2016,07,18,08,58,17.70
2016,07,18,08,59,17.80
2016,07,18,09,00,17.80
2016,07,18,09,01,17.90
2016,07,18,09,02,17.90
2016,07,18,09,03,18.00
2016,07,18,09,04,18.10
2016,07,18,09,05,18.10
2016,07,18,09,06,18.20
2016,07,18,09,07,18.20
2016,07,18,09,08,18.20
2016,07,18,09,09,18.20
2016,07,18,09,10,18.30
2016,07,18,09,11,18.30
2016,07,18,09,12,18.30
2016,07,18,09,13,18.40
2016,07,18,09,14,18.40
2016,07,18,09,15,18.50
2016,07,18,09,16,18.50
2016,07,18,09,17,18.50
2016,07,18,09,18,18.60
2016,07,18,09,19,18.60
2016,07,18,09,20,18.60
2016,07,18,09,21,18.70
2016,07,18,09,22,18.70
2016,07,18,09,23,18.70
2016,07,18,09,24,18.80
2016,07,18,09,25,18.80
2016,07,18,09,26,18.80
2016,07,18,09,27,18.80
2016,07,18,09,28,18.80
2016,07,18,09,29,18.80
2016,07,18,09,30,18.90
2016,07,18,09,31,18.90
2016,07,18,09,32,18.90
2016,07,18,09,33,18.90
2016,07,18,09,34,18.90
2016,07,18,09,35,18.90
2016,07,18,09,36,18.90
2016,07,18,09,37,18.90
2016,07,18,09,38,19.00
2016,07,18,09,39,19.10
2016,07,18,09,40,19.10
2016,07,18,09,41,19.10
2016,07,18,09,42,19.10
2016,07,18,09,43,19.10
2016,07,18,09,44,19.10
2016,07,18,09,45,19.10
2016,07,18,09,46,19.20
2016,07,18,09,47,19.20
2016,07,18,09,48,19.30
2016,07,18,09,49,19.30
2016,07,18,09,50,19.40
2016,07,18,09,51,19.40
2016,07,18,09,52,19.50
2016,07,18,09,53,19.50
2016,07,18,09,54,19.50
2016,07,18,09,55,19.60
2016,07,18,09,56,19.60
2016,07,18,09,57,19.60
2016,07,18,09,58,19.60
2016,07,18,09,59,19.70
2016,07,18,10,00,19.70
2016,07,18,10,01,19.80
2016,07,18,10,02,19.80
2016,07,18,10,03,19.80
2016,07,18,10,04,19.80
2016,07,18,10,05,19.90
2016,07,18,10,06,19.90
2016,07,18,10,07,19.90
2016,07,18,10,08,19.90
2016,07,18,10,09,19.90
2016,07,18,10,10,19.90
2016,07,18,10,11,19.90
2016,07,18,10,12,20.10
2016,07,18,10,13,20.10
2016,07,18,10,14,20.10
2016,07,18,10,15,20.10
2016,07,18,10,16,20.20
2016,07,18,10,17,20.20
2016,07,18,10,18,20.20
2016,07,18,10,19,20.20
2016,07,18,10,20,20.30
2016,07,18,10,21,20.30
2016,07,18,10,22,20.30
2016,07,18,10,23,20.30
2016,07,18,10,24,20.40
2016,07,18,10,25,20.40
2016,07,18,10,26,20.40
2016,07,18,10,27,20.40
2016,07,18,10,28,20.40
2016,07,18,10,29,20.40
2016,07,18,10,30,20.40
2016,07,18,10,31,20.50
2016,07,18,10,32,20.50
2016,07,18,10,33,20.50
2016,07,18,10,34,20.50
2016,07,18,10,35,20.60
2016,07,18,10,36,20.60
2016,07,18,10,37,20.60
2016,07,18,10,38,20.60
2016,07,18,10,39,20.70
2016,07,18,10,40,20.70
2016,07,18,10,41,20.70
2016,07,18,10,42,20.80
2016,07,18,10,43,20.80
2016,07,18,10,44,20.80
2016,07,18,10,45,20.90
2016,07,18,10,46,20.90
2016,07,18,10,47,20.90
2016,07,18,10,48,21.00
2016,07,18,10,49,21.00
2016,07,18,10,50,21.00
2016,07,18,10,51,21.10
2016,07,18,10,52,21.10
2016,07,18,10,53,21.10
2016,07,18,10,54,21.10
2016,07,18,10,55,21.10
2016,07,18,10,56,21.10
2016,07,18,10,57,21.10
2016,07,18,10,58,21.10
2016,07,18,10,59,21.10
2016,07,18,11,00,21.10
2016,07,18,11,01,21.10
2016,07,18,11,02,21.20
2016,07,18,11,03,21.20
2016,07,18,11,04,21.20
2016,07,18,11,05,21.20
2016,07,18,11,06,21.20
2016,07,18,11,07,21.20
2016,07,18,11,08,21.20
2016,07,18,11,09,21.30
2016,07,18,11,10,21.30
2016,07,18,11,11,21.30
2016,07,18,11,12,21.30
2016,07,18,11,13,21.30
2016,07,18,11,14,21.30
2016,07,18,11,15,21.30
2016,07,18,11,16,21.30
2016,07,18,11,17,21.30
2016,07,18,11,18,21.30
2016,07,18,11,19,21.30
2016,07,18,11,20,21.30
2016,07,18,11,21,21.30
2016,07,18,11,22,21.30
2016,07,18,11,23,21.30
2016,07,18,11,24,21.20
2016,07,18,11,25,21.20
2016,07,18,11,26,21.20
2016,07,18,11,27,21.20
2016,07,18,11,28,21.20
2016,07,18,11,29,21.20
2016,07,18,11,30,21.20
2016,07,18,11,31,21.20
2016,07,18,11,32,21.10
2016,07,18,11,33,21.10
2016,07,18,11,34,21.10
2016,07,18,11,35,21.10
2016,07,18,11,36,21.10
2016,07,18,11,37,21.10
2016,07,18,11,38,21.10
2016,07,18,11,39,21.10
2016,07,18,11,40,21.10
2016,07,18,11,41,21.10
2016,07,18,11,42,21.10
2016,07,18,11,43,21.10
2016,07,18,11,44,21.10
2016,07,18,11,45,21.10
2016,07,18,11,46,21.10
2016,07,18,11,47,21.20
2016,07,18,11,48,21.10
2016,07,18,11,49,21.10
2016,07,18,11,50,21.10
2016,07,18,11,51,21.00
2016,07,18,11,52,21.00
2016,07,18,11,53,20.90
2016,07,18,11,54,20.90
2016,07,18,11,55,20.90
2016,07,18,11,56,20.80
2016,07,18,11,57,20.80
2016,07,18,11,58,20.70
2016,07,18,11,59,20.70
2016,07,18,12,00,20.70
2016,07,18,12,01,20.70
2016,07,18,12,02,20.70
2016,07,18,12,03,20.70
2016,07,18,12,04,20.70
2016,07,18,12,05,20.70
2016,07,18,12,06,20.70
2016,07,18,12,07,20.70
2016,07,18,12,08,20.70
2016,07,18,12,09,20.80
2016,07,18,12,10,20.80
2016,07,18,12,11,20.80
2016,07,18,12,12,20.80
2016,07,18,12,13,20.80
2016,07,18,12,14,20.90
2016,07,18,12,15,20.90
2016,07,18,12,16,20.90
2016,07,18,12,17,20.90
2016,07,18,12,18,20.90
2016,07,18,12,19,20.90
2016,07,18,12,20,21.00
2016,07,18,12,21,20.90
2016,07,18,12,22,21.00
2016,07,18,12,23,21.00
2016,07,18,12,24,21.00
2016,07,18,12,25,21.00
2016,07,18,12,26,21.10
2016,07,18,12,27,21.10
2016,07,18,12,28,21.10
2016,07,18,12,29,21.10
2016,07,18,12,30,21.20
2016,07,18,12,31,21.20
2016,07,18,12,32,21.30
2016,07,18,12,33,21.30
2016,07,18,12,34,21.30
2016,07,18,12,35,21.30
2016,07,18,12,36,21.30
2016,07,18,12,37,21.30
2016,07,18,12,38,21.30
2016,07,18,12,39,21.40
2016,07,18,12,40,21.40
2016,07,18,12,41,21.40
2016,07,18,12,42,21.40
2016,07,18,12,43,21.40
2016,07,18,12,44,21.40
2016,07,18,12,45,21.40
2016,07,18,12,46,21.30
2016,07,18,12,47,21.30
2016,07,18,12,48,21.30
2016,07,18,12,49,21.30
2016,07,18,12,50,21.30
2016,07,18,12,51,21.30
2016,07,18,12,52,21.30
2016,07,18,12,53,21.30
2016,07,18,12,54,21.30
2016,07,18,12,55,21.30
2016,07,18,12,56,21.30
2016,07,18,12,57,21.30
2016,07,18,12,58,21.40
2016,07,18,12,59,21.40
2016,07,18,13,00,21.40
2016,07,18,13,01,21.40
2016,07,18,13,02,21.40
2016,07,18,13,03,21.40
2016,07,18,13,04,21.40
2016,07,18,13,05,21.40
2016,07,18,13,06,21.40
2016,07,18,13,07,21.60
2016,07,18,13,08,21.60
2016,07,18,13,09,21.60
2016,07,18,13,10,21.70
2016,07,18,13,11,21.70
2016,07,18,13,12,21.80
2016,07,18,13,13,21.90
2016,07,18,13,14,22.00
2016,07,18,13,15,22.10
2016,07,18,13,16,22.20
2016,07,18,13,17,22.20
2016,07,18,13,18,22.30
2016,07,18,13,19,22.30
2016,07,18,13,20,22.40
2016,07,18,13,21,22.40
2016,07,18,13,22,22.50
2016,07,18,13,23,22.60
2016,07,18,13,24,22.70
2016,07,18,13,25,22.90
2016,07,18,13,26,23.00
2016,07,18,13,27,23.20
2016,07,18,13,28,23.30
2016,07,18,13,29,23.40
2016,07,18,13,30,23.60
2016,07,18,13,31,23.60
2016,07,18,13,32,23.70
2016,07,18,13,33,23.70
2016,07,18,13,34,23.80
2016,07,18,13,35,24.00
2016,07,18,13,36,24.10
2016,07,18,13,37,24.20
2016,07,18,13,38,24.30
2016,07,18,13,39,24.40
2016,07,18,13,40,24.40
2016,07,18,13,41,24.50
2016,07,18,13,42,24.50
2016,07,18,13,43,24.50
2016,07,18,13,44,24.50
2016,07,18,13,45,24.60
2016,07,18,13,46,24.60
2016,07,18,13,47,24.70
2016,07,18,13,48,24.70
2016,07,18,13,49,24.80
2016,07,18,13,50,24.90
2016,07,18,13,51,24.90
2016,07,18,13,52,24.90
2016,07,18,13,53,24.90
2016,07,18,13,54,24.90
2016,07,18,13,55,25.00
2016,07,18,13,56,25.00
2016,07,18,13,57,25.00
2016,07,18,13,58,25.00
2016,07,18,13,59,25.00
2016,07,18,14,00,25.00
2016,07,18,14,01,24.90
2016,07,18,14,02,24.80
2016,07,18,14,03,24.80
2016,07,18,14,04,24.70
2016,07,18,14,05,24.70
2016,07,18,14,06,24.60
2016,07,18,14,07,24.60
2016,07,18,14,08,24.60
2016,07,18,14,09,24.60
2016,07,18,14,10,24.60
2016,07,18,14,11,24.50
2016,07,18,14,12,24.50
2016,07,18,14,13,24.50
2016,07,18,14,14,24.60
2016,07,18,14,15,24.60
2016,07,18,14,16,24.60
2016,07,18,14,17,24.70
2016,07,18,14,18,24.80
2016,07,18,14,19,24.80
2016,07,18,14,20,24.90
2016,07,18,14,21,24.90
2016,07,18,14,22,24.90
2016,07,18,14,23,25.00
2016,07,18,14,24,25.00
2016,07,18,14,25,25.10
2016,07,18,14,26,25.10
2016,07,18,14,27,25.10
2016,07,18,14,28,25.20
2016,07,18,14,29,25.20
2016,07,18,14,30,25.20
2016,07,18,14,31,25.20
2016,07,18,14,32,25.30
2016,07,18,14,33,25.30
2016,07,18,14,34,25.30
2016,07,18,14,35,25.30
2016,07,18,14,36,25.30
2016,07,18,14,37,25.20
2016,07,18,14,38,25.10
2016,07,18,14,39,25.10
2016,07,18,14,40,25.00
2016,07,18,14,41,25.00
2016,07,18,14,42,24.90
2016,07,18,14,43,24.90
2016,07,18,14,44,25.00
2016,07,18,14,45,25.00
2016,07,18,14,46,25.00
2016,07,18,14,47,25.00
2016,07,18,14,48,25.00
2016,07,18,14,49,25.00
2016,07,18,14,50,25.00
2016,07,18,14,51,25.00
2016,07,18,14,52,25.00
2016,07,18,14,53,25.10
2016,07,18,14,54,25.20
2016,07,18,14,55,25.20
2016,07,18,14,56,25.20
2016,07,18,14,57,25.20
2016,07,18,14,58,25.10
2016,07,18,14,59,25.00
2016,07,18,15,00,24.90
2016,07,18,15,01,24.80
2016,07,18,15,02,24.70
2016,07,18,15,03,24.70
2016,07,18,15,04,24.70
2016,07,18,15,05,24.70
2016,07,18,15,06,24.70
2016,07,18,15,07,24.60
2016,07,18,15,08,24.40
2016,07,18,15,09,24.30
2016,07,18,15,10,24.10
2016,07,18,15,11,24.10
2016,07,18,15,12,24.10
2016,07,18,15,13,24.00
2016,07,18,15,14,23.90
2016,07,18,15,15,24.00
2016,07,18,15,16,24.10
2016,07,18,15,17,24.10
2016,07,18,15,18,24.10
2016,07,18,15,19,24.10
2016,07,18,15,20,24.10
2016,07,18,15,21,23.90
2016,07,18,15,22,23.90
2016,07,18,15,23,23.90
2016,07,18,15,24,23.70
2016,07,18,15,25,23.60
2016,07,18,15,26,23.40
2016,07,18,15,27,23.30
2016,07,18,15,28,23.10
2016,07,18,15,29,23.00
2016,07,18,15,30,22.90
2016,07,18,15,31,22.90
2016,07,18,15,32,22.80
2016,07,18,15,33,22.70
2016,07,18,15,34,22.70
2016,07,18,15,35,22.60
2016,07,18,15,36,22.60
2016,07,18,15,37,22.60
2016,07,18,15,38,22.60
2016,07,18,15,39,22.70
2016,07,18,15,40,22.70
2016,07,18,15,41,22.80
2016,07,18,15,42,22.80
2016,07,18,15,43,22.80
2016,07,18,15,44,22.80
2016,07,18,15,45,22.80
2016,07,18,15,46,22.70
2016,07,18,15,47,22.70
2016,07,18,15,48,22.60
2016,07,18,15,49,22.60
2016,07,18,15,50,22.50
2016,07,18,15,51,22.40
2016,07,18,15,52,22.40
2016,07,18,15,53,22.30
2016,07,18,15,54,22.30
2016,07,18,15,55,22.20
2016,07,18,15,56,22.20
2016,07,18,15,57,22.10
2016,07,18,15,58,22.10
2016,07,18,15,59,22.10
2016,07,18,16,00,22.10
2016,07,18,16,01,22.10
2016,07,18,16,02,22.10
2016,07,18,16,03,22.10
2016,07,18,16,04,22.20
2016,07,18,16,05,22.20
2016,07,18,16,06,22.20
2016,07,18,16,07,22.20
2016,07,18,16,08,22.20
2016,07,18,16,09,22.20
2016,07,18,16,10,22.20
2016,07,18,16,11,22.10
2016,07,18,16,12,22.00
2016,07,18,16,13,22.00
2016,07,18,16,14,21.90
2016,07,18,16,15,21.90
2016,07,18,16,16,21.80
2016,07,18,16,17,21.80
2016,07,18,16,18,21.70
2016,07,18,16,19,21.70
2016,07,18,16,20,21.70
2016,07,18,16,21,21.70
2016,07,18,16,22,21.70
2016,07,18,16,23,21.70
2016,07,18,16,24,21.70
2016,07,18,16,25,21.80
2016,07,18,16,26,21.80
2016,07,18,16,27,21.80
2016,07,18,16,28,21.80
2016,07,18,16,29,21.80
2016,07,18,16,30,21.80
2016,07,18,16,31,21.80
2016,07,18,16,32,21.70
2016,07,18,16,33,21.70
2016,07,18,16,34,21.70
2016,07,18,16,35,21.60
2016,07,18,16,36,21.60
2016,07,18,16,37,21.60
2016,07,18,16,38,21.60
2016,07,18,16,39,21.60
2016,07,18,16,40,21.60
2016,07,18,16,41,21.60
2016,07,18,16,42,21.60
2016,07,18,16,43,21.60
2016,07,18,16,44,21.60
2016,07,18,16,45,21.60
2016,07,18,16,46,21.40
2016,07,18,16,47,21.40
2016,07,18,16,48,21.40
2016,07,18,16,49,21.40
2016,07,18,16,50,21.40
2016,07,18,16,51,21.30
2016,07,18,16,52,21.30
2016,07,18,16,53,21.30
2016,07,18,16,54,21.30
2016,07,18,16,55,21.30
2016,07,18,16,56,21.30
2016,07,18,16,57,21.30
2016,07,18,16,58,21.30
2016,07,18,16,59,21.30
2016,07,18,17,00,21.20
2016,07,18,17,01,21.20
2016,07,18,17,02,21.20
2016,07,18,17,03,21.20
2016,07,18,17,04,21.20
2016,07,18,17,05,21.20
2016,07,18,17,06,21.10
2016,07,18,17,07,21.10
2016,07,18,17,08,21.10
2016,07,18,17,09,21.00
2016,07,18,17,10,21.00
2016,07,18,17,11,21.00
2016,07,18,17,12,21.00
2016,07,18,17,13,21.00
2016,07,18,17,14,20.90
2016,07,18,17,15,20.90
2016,07,18,17,16,20.90
2016,07,18,17,17,20.90
2016,07,18,17,18,20.90
2016,07,18,17,19,20.80